Change the Weather History Date:

Friday, September 14, 2012

  Actual Average Record
Temperature  
Mean Temperature 77 °F -  
Max Temperature 93 °F 89 °F 100 °F (2000)
Min Temperature 61 °F 60 °F 48 °F (2005)
Cooling Degree Days 12    
Growing Degree Days 27 (Base 50)    
Moisture  
Dew Point 23 °F    
Average Humidity 13    
Maximum Humidity 23    
Minimum Humidity 4    
Precipitation  
Precipitation 0.00 in - - ()
Sea Level Pressure  
Sea Level Pressure 30.06 in    
Wind  
Wind Speed 5 mph (East)    
Max Wind Speed 9 mph    
Max Gust Speed -    
Visibility 10 miles    
Events      
Averages and records for this station are not official NWS values.
T = Trace of Precipitation, MM = Missing Value Source: NWS Daily Summary

Daily Weather History Graph

Daily Weather History Graph

Search for Another Location

Airport or City:

Trip Planner

Search our weather history database for the weather conditions in past years. The results will help you decide how hot, cold, wet, or windy it might be!

Date:

Astronomy

Sep. 14, 2012 Rise Set
Actual Time 6:26 AM PDT 6:52 PM PDT
Civil Twilight 6:00 AM PDT 7:18 PM PDT
Nautical Twilight 5:29 AM PDT 7:48 PM PDT
Astronomical Twilight 4:58 AM PDT 8:19 PM PDT
Moon 4:56 AM PDT (9/14) 5:51 PM PDT (9/14)
Length of Visible Light 13h 17m
Length of Day
12h 26m
Waning Crescent, 2% of the Moon is Illuminated
Sep 14
Waning Crescent
Sep 15
New
Sep 22
First Quarter
Sep 29
Full
Oct 8
Last Quarter

Hourly Weather History & Observations

Time (PDT) Temp. Dew Point Humidity Pressure Visibility Wind Dir Wind Speed Gust Speed Precip Events Conditions
12:52 AM 66.9 °F 24.1 °F 20% 30.08 in 10.0 mi North 3.5 mph - N/A   Clear
1:52 AM 66.9 °F 26.1 °F 21% 30.07 in 10.0 mi ESE 6.9 mph - N/A   Clear
2:52 AM 66.0 °F 25.0 °F 21% 30.08 in 10.0 mi Calm Calm - N/A   Clear
3:52 AM 66.0 °F 23.0 °F 20% 30.07 in 10.0 mi ENE 4.6 mph - N/A   Clear
4:52 AM 64.9 °F 24.1 °F 21% 30.08 in 10.0 mi East 4.6 mph - N/A   Clear
5:52 AM 63.0 °F 24.1 °F 23% 30.09 in 10.0 mi ENE 4.6 mph - N/A   Clear
6:52 AM 64.0 °F 24.1 °F 22% 30.12 in 10.0 mi ENE 9.2 mph - N/A   Clear
7:52 AM 75.0 °F 23.0 °F 14% 30.12 in 10.0 mi NE 5.8 mph - N/A   Clear
8:52 AM 81.0 °F 21.9 °F 11% 30.12 in 10.0 mi NNE 9.2 mph - N/A   Clear
9:52 AM 84.9 °F 23.0 °F 10% 30.12 in 10.0 mi NNE 5.8 mph - N/A   Clear
10:52 AM 86.0 °F 21.0 °F 9% 30.12 in 10.0 mi Variable 5.8 mph - N/A   Clear
11:52 AM 89.1 °F 21.0 °F 8% 30.10 in 10.0 mi Calm Calm - N/A   Clear
12:52 PM 91.0 °F 19.0 °F 7% 30.09 in 10.0 mi North 6.9 mph - N/A   Clear
1:52 PM 91.9 °F 17.1 °F 6% 30.06 in 10.0 mi ESE 4.6 mph - N/A   Clear
2:52 PM 93.0 °F 19.0 °F 7% 30.03 in 10.0 mi ESE 9.2 mph - N/A   Clear
3:52 PM 93.0 °F 19.0 °F 7% 30.01 in 10.0 mi ESE 8.1 mph - N/A   Clear
4:52 PM 91.9 °F 21.0 °F 8% 30.00 in 10.0 mi East 4.6 mph - N/A   Clear
5:52 PM 91.0 °F 23.0 °F 8% 30.00 in 10.0 mi Variable 3.5 mph - N/A   Clear
6:52 PM 87.1 °F 23.0 °F 10% 30.01 in 10.0 mi SE 8.1 mph - N/A   Clear
7:52 PM 81.0 °F 26.1 °F 13% 30.01 in 10.0 mi SE 5.8 mph - N/A   Clear
8:52 PM 77.0 °F 28.0 °F 17% 30.02 in 10.0 mi ESE 8.1 mph - N/A   Clear
9:52 PM 77.0 °F 28.0 °F 17% 30.03 in 10.0 mi Calm Calm - N/A   Clear
10:52 PM 72.0 °F 30.0 °F 21% 30.04 in 10.0 mi SE 6.9 mph - N/A   Clear
11:52 PM 69.1 °F 28.0 °F 22% 30.04 in 10.0 mi Calm Calm - N/A   Clear